Location: Ç?ral? Körfezi
(36.3984°N, 30.4829°E)
Time: 19:46:10
(UTC+00:00)

NOSS 3-2 (A) - Pass Details

Date: 04 August 2024
Orbit: 703 x 1502 km, 63.4° (Epoch: 12 August)

Event Time Altitude Azimuth Distance (km) Brightness Sun altitude
Rises 19:23:50 0° 329° (NNW) 4,011 8.0 -24.6°
Reaches altitude 10° 19:26:23 10° 332° (NNW) 3,153 7.1 -24.9°
Maximum altitude 19:34:12 73° 57° (ENE) 1,417 4.2 -26.0°
Enters shadow 19:36:56 48° 127° (SE) 1,772 4.3 -26.3°
